[[{"header":{"parameterUnit":"m.s-1","parameterCategory":1,"la1":30.2991,"la2":30.254,"lo1":-89.0895,"lo2":-89.0444,"dy":0.0017,"dx":0.0017,"nx":28,"ny":28,"refTime":"2025-06-05T03:00:00:Z","depth":0,"parameterNumber":2,"parameterNumberName":"U-component_of_WINDS"},"data":[0,0,0,0,0,0,0,0,0,0,0,0,0,0,0,0,0,0,0,0,0,0,0,0,0,0,0,0,0,0,0,0,0,0,0,0,0,0,0,0,0,0,0,0,0,0,0,0,0,0,0,0,0,0,0,0,0,0,0.1992,0.1993,0,0.2033,0.2034,0.2034,0.2049,0.2049,0.2049,0.2049,0.209,0.2091,0.2092,0,0,0,0,0,0,0,0,0,0,0,0,0,0.1925,0.1926,0.1992,0.1993,0.1993,0.2033,0.2034,0.2034,0.2049,0.2049,0.2049,0.2049,0.209,0.2091,0.2093,0,0,0,0,0,0,0,0,0,0,0,0,0,0.1959,0.1926,0.1992,0.2006,0.2007,0.2033,0.2034,0.2034,0.2049,0.2049,0.2049,0.2048,0.2089,0.2091,0.2093,0.2108,0,0,0.2098,0.2099,0,0,0,0,0,0,0,0,0.1957,0.1961,0.2003,0.2005,0.2006,0.2036,0.2025,0.2059,0.2049,0.2033,0.2049,0.2048,0.2072,0.2075,0.2083,0.211,0.2112,0.2099,0.21,0.2101,0.2101,0,0,0,0,0,0,0,0.1954,0.196,0.2008,0.2004,0.2006,0.2009,0.2013,0.2032,0.2053,0.2035,0.2036,0.204,0.2073,0.2082,0.2085,0.2113,0.2099,0.21,0.2101,0.2102,0.2152,0.2153,0,0,0,0,0,0,0.195,0.1958,0.2007,0.201,0.1981,0.201,0.2015,0.2027,0.2053,0.2057,0.204,0.2041,0.2079,0.2082,0.2086,0.2105,0.21,0.2102,0.2103,0.2152,0.2152,0.2153,0,0,0,0,0,0,0.1949,0.1954,0.2006,0.1984,0.1991,0.2012,0.2024,0.2028,0.2036,0.2058,0.2061,0.2045,0.2079,0.2083,0.2102,0.2107,0.2103,0.2105,0.2152,0.2152,0.2153,0.2144,0,0,0,0,0,0,0.1947,0.1954,0.1961,0.1984,0.1992,0.2022,0.2024,0.2028,0.2039,0.204,0.2063,0.2067,0.2079,0.2099,0.2104,0.2109,0.2106,0.2152,0.2152,0.2152,0.2144,0.2144,0.2144,0,0,0,0,0,0.1944,0.1957,0.1961,0.1967,0.2001,0.2022,0.2026,0.204,0.204,0.2046,0.206,0.2066,0.2105,0.2101,0.2107,0.2112,0.2151,0.2152,0.2152,0.2144,0.2144,0.2144,0,0,0,0,0,0,0.1933,0.196,0.1965,0.1986,0.2001,0.2024,0.2033,0.204,0.2056,0.2056,0.2072,0.2077,0.2094,0.2105,0.21,0.2128,0.2129,0.213,0.212,0.212,0.212,0.2117,0.2108,0,0,0,0,0,0.1933,0.1949,0.1971,0.1987,0.1995,0.2012,0.2022,0.2031,0.2048,0.2055,0.207,0.2086,0.2101,0.2111,0.2127,0.2145,0.215,0.2152,0.2151,0.2151,0.2153,0.2162,0.2162,0.2154,0.2154,0.2154,0,0,0.1934,0.195,0.1959,0.1985,0.1998,0.2013,0.2018,0.2034,0.2045,0.2057,0.2076,0.2087,0.2106,0.2124,0.2132,0.2133,0.2156,0.2152,0.2152,0.2153,0.2162,0.2163,0.2164,0.2155,0.2155,0.2155,0,0,0.1941,0.1956,0.197,0.1983,0.2003,0.2014,0.2017,0.2039,0.2047,0.2066,0.2075,0.2088,0.2115,0.2128,0.2138,0.2148,0.2154,0.2153,0.2153,0.2161,0.2162,0.2163,0.2166,0.2167,0.2154,0.2154,0.2154,0,0.1939,0.1963,0.1976,0.1992,0.2002,0.2014,0.2027,0.2039,0.2063,0.207,0.2071,0.2104,0.2117,0.2138,0.214,0.2148,0.2152,0.215,0.2161,0.2162,0.2162,0.2166,0.2167,0.2153,0.2153,0.2153,0.2154,0,0.1958,0.1974,0.1983,0.2005,0.2017,0.2032,0.2047,0.2057,0.2064,0.2075,0.2093,0.2109,0.2128,0.2134,0.2141,0.2155,0.2155,0.2158,0.2159,0.2163,0.2166,0.2167,0.2153,0.2153,0.2153,0.2153,0,0,0.1962,0.199,0.1993,0.2003,0.2025,0.2037,0.2051,0.207,0.2077,0.2093,0.2105,0.2127,0.2129,0.214,0.2149,0.2157,0.2163,0.2159,0.216,0.2159,0.2178,0.2175,0.2177,0.2167,0.2167,0.2167,0.2176,0,0.1972,0.1998,0.2011,0.2031,0.2045,0.2055,0.2067,0.2082,0.2092,0.2105,0.2116,0.2131,0.2134,0.214,0.2148,0.216,0.2167,0.216,0.2178,0.2178,0.2173,0.2178,0.2176,0.2183,0.2178,0.2178,0.2178,0,0.1988,0.2003,0.2025,0.2044,0.2051,0.2061,0.2078,0.2091,0.2106,0.2113,0.2125,0.2133,0.2147,0.2147,0.2166,0.2161,0.2169,0.2176,0.2177,0.2179,0.2178,0.218,0.2186,0.2187,0.218,0.218,0.218,0,0.1987,0.2013,0.203,0.2038,0.206,0.2067,0.2077,0.2093,0.2102,0.2117,0.2123,0.2139,0.2147,0.2159,0.2171,0.217,0.2189,0.219,0.2195,0.2194,0.2199,0.2198,0.2206,0.2204,0.2204,0.2204,0.2204,0,0.1998,0.2011,0.203,0.204,0.2054,0.2067,0.2081,0.2091,0.2104,0.2116,0.2125,0.2136,0.2151,0.2163,0.2172,0.2187,0.2191,0.2196,0.2198,0.2195,0.2194,0.2201,0.2201,0.2204,0.2204,0.2204,0.2204,0,0.2,0.2013,0.2031,0.2051,0.2056,0.2065,0.2082,0.2091,0.2101,0.2116,0.212,0.2136,0.215,0.2163,0.2183,0.2189,0.2204,0.2206,0.2198,0.2199,0.2203,0.2203,0.2215,0.2217,0.2214,0.2214,0.2214,0,0.2006,0.2016,0.2036,0.2044,0.2054,0.2067,0.2077,0.209,0.2099,0.2117,0.2124,0.2139,0.2152,0.2175,0.2188,0.2203,0.2206,0.2209,0.2208,0.2204,0.2206,0.2205,0.2206,0.2209,0.2209,0.2209,0.2209,0,0.2014,0.202,0.2033,0.2049,0.206,0.2073,0.2086,0.2092,0.2107,0.2117,0.2132,0.2142,0.2161,0.2176,0.2192,0.2201,0.2207,0.2209,0.2211,0.2208,0.2203,0.2205,0.2198,0.2209,0.2209,0.2209,0.2209,0.2209,0.2018,0.2027,0.2042,0.2057,0.2068,0.2079,0.2089,0.21,0.2113,0.2129,0.2136,0.2151,0.2165,0.2187,0.2196,0.2208,0.2209,0.2211,0.2212,0.2213,0.2212,0.22,0.2211,0.2211,0.2211,0.2211,0.2211,0,0.2026,0.2036,0.205,0.2067,0.2078,0.2083,0.2097,0.2106,0.2119,0.2132,0.2144,0.2161,0.2175,0.2188,0.2203,0.2209,0.2212,0.2213,0.2212,0.2214,0.221,0.2207,0.221,0.221,0.221,0.221,0.221,0.221,0.2032,0.2047,0.2054,0.2075,0.2085,0.2099,0.2107,0.2117,0.2127,0.2145,0.2157,0.2166,0.2179,0.2194,0.2207,0.221,0.2215,0.2214,0.2219,0.2215,0.2215,0.2215,0.2212,0.2215,0.2215,0.2222,0.2222,0.2222]},{"header":{"parameterUnit":"m.s-1","parameterCategory":1,"la1":30.2991,"la2":30.254,"lo1":-89.0895,"lo2":-89.0444,"dy":0.0017,"dx":0.0017,"nx":28,"ny":28,"refTime":"2025-06-05T03:00:00:Z","depth":0,"parameterNumber":3,"parameterNumberName":"V-component_of_WINDS"},"data":[0,0,0,0,0,0,0,0,0,0,0,0,0,0,0,0,0,0,0,0,0,0,0,0,0,0,0,0,0,0,0,0,0,0,0,0,0,0,0,0,0,0,0,0,0,0,0,0,0,0,0,0,0,0,0,0,0,0,4.7009,4.701,0,4.705,4.705,4.705,4.6979,4.6977,4.6975,4.6972,4.7008,4.7011,4.7015,0,0,0,0,0,0,0,0,0,0,0,0,0,4.6866,4.6869,4.7009,4.701,4.701,4.705,4.705,4.7051,4.698,4.6977,4.6974,4.6971,4.7007,4.7011,4.7015,0,0,0,0,0,0,0,0,0,0,0,0,0,4.6919,4.687,4.7009,4.698,4.6978,4.7049,4.705,4.7051,4.698,4.6977,4.6973,4.697,4.7006,4.7011,4.7015,4.7116,0,0,4.703,4.7032,0,0,0,0,0,0,0,0,4.6916,4.6924,4.6984,4.6982,4.698,4.7006,4.7012,4.7072,4.6981,4.6979,4.6972,4.6968,4.701,4.7014,4.7029,4.7118,4.7119,4.703,4.7033,4.7035,4.7037,0,0,0,0,0,0,0,4.6912,4.6922,4.7025,4.6985,4.6982,4.6963,4.6967,4.7023,4.7014,4.6979,4.6974,4.698,4.7008,4.7025,4.703,4.712,4.703,4.7034,4.7037,4.7039,4.7291,4.7294,0,0,0,0,0,0,4.6913,4.692,4.7024,4.7026,4.6939,4.6968,4.6972,4.7001,4.7013,4.7012,4.6983,4.6977,4.7019,4.7024,4.7031,4.7148,4.7035,4.704,4.7042,4.7287,4.7292,4.7296,0,0,0,0,0,0,4.691,4.6923,4.7022,4.6972,4.6983,4.6975,4.7007,4.7004,4.702,4.7016,4.7014,4.7003,4.7016,4.7024,4.7095,4.7149,4.7042,4.7046,4.7283,4.7288,4.7294,4.7385,0,0,0,0,0,0,4.6907,4.6923,4.6962,4.6973,4.6986,4.7088,4.7011,4.7007,4.703,4.7021,4.7034,4.7032,4.7014,4.7089,4.71,4.7153,4.705,4.7278,4.7285,4.7292,4.7377,4.7393,4.7407,0,0,0,0,0,4.6902,4.6985,4.6965,4.6977,4.7035,4.7091,4.7098,4.7077,4.7034,4.7073,4.707,4.7032,4.7141,4.7097,4.7109,4.7164,4.7274,4.7283,4.7291,4.737,4.739,4.7406,0,0,0,0,0,0,4.6978,4.6986,4.6963,4.7053,4.7073,4.7079,4.7127,4.7099,4.7129,4.712,4.7091,4.7094,4.7171,4.7174,4.7125,4.7261,4.72,4.7212,4.7256,4.7275,4.7289,4.7286,4.7054,0,0,0,0,0,4.7006,4.7053,4.7056,4.7135,4.7146,4.7136,4.7159,4.7141,4.7159,4.7166,4.7169,4.7186,4.7224,4.725,4.7284,4.7378,4.7378,4.7422,4.7436,4.7449,4.7458,4.7507,4.7526,4.7324,4.7324,4.7324,0,0,4.7063,4.7073,4.7104,4.7151,4.7164,4.7211,4.7143,4.7195,4.7229,4.7174,4.7241,4.7244,4.7261,4.7344,4.738,4.7349,4.7515,4.746,4.747,4.7473,4.7518,4.7537,4.7554,4.733,4.7329,4.7328,0,0,4.7191,4.7205,4.7271,4.7286,4.7307,4.7299,4.7315,4.7327,4.7327,4.7395,4.7354,4.7393,4.7459,4.7473,4.7489,4.7623,4.7588,4.7635,4.7712,4.7759,4.7775,4.7789,4.7835,4.7852,4.7645,4.7645,4.7645,0,4.7259,4.7331,4.7309,4.7365,4.7386,4.734,4.7406,4.742,4.7451,4.7466,4.7431,4.7514,4.7522,4.7606,4.7639,4.7654,4.767,4.7633,4.7775,4.7788,4.7801,4.7845,4.7863,4.765,4.765,4.7649,4.7649,0,4.7412,4.7462,4.7513,4.7546,4.7573,4.7634,4.7619,4.7649,4.7629,4.7624,4.7693,4.7702,4.7737,4.7756,4.7736,4.7838,4.7818,4.778,4.7717,4.7826,4.7867,4.7883,4.7658,4.7656,4.7655,4.7653,0,0,4.7588,4.7609,4.7628,4.7642,4.7662,4.7699,4.7757,4.7794,4.7819,4.7842,4.7888,4.7946,4.7911,4.7929,4.791,4.7952,4.8056,4.7909,4.7908,4.7935,4.8167,4.8195,4.8215,4.8034,4.8037,4.804,4.8165,0,4.7715,4.7817,4.7799,4.7898,4.7943,4.7899,4.795,4.7966,4.7964,4.8,4.7996,4.8037,4.7988,4.7999,4.8038,4.8035,4.8102,4.8026,4.8075,4.8077,4.8071,4.8236,4.8266,4.8383,4.8181,4.8183,4.8185,0,4.7876,4.7906,4.801,4.8022,4.804,4.8086,4.8118,4.8154,4.8171,4.8166,4.8187,4.816,4.8216,4.8155,4.823,4.8179,4.8198,4.82,4.8203,4.8206,4.8137,4.8242,4.8421,4.8438,4.821,4.8208,4.8207,0,4.7992,4.8059,4.813,4.8143,4.816,4.8193,4.8201,4.8215,4.8238,4.8265,4.8279,4.8312,4.833,4.8355,4.8338,4.8295,4.8416,4.8353,4.8412,4.8412,4.8438,4.8436,4.8621,4.8453,4.8453,4.8452,4.8452,0,4.8135,4.8199,4.8183,4.8226,4.8296,4.8275,4.8345,4.8347,4.836,4.8402,4.8366,4.8405,4.838,4.8417,4.8404,4.8468,4.8476,4.8472,4.8468,4.8475,4.8476,4.8486,4.8477,4.8457,4.8456,4.8455,4.8454,0,4.8276,4.8268,4.8342,4.8352,4.8356,4.8408,4.8415,4.8455,4.845,4.8503,4.8514,4.8505,4.8547,4.8533,4.8576,4.8567,4.8649,4.8634,4.8643,4.8639,4.8699,4.8693,4.8896,4.8921,4.8737,4.8739,4.8741,0,4.8367,4.8416,4.8432,4.8459,4.847,4.8512,4.8536,4.8516,4.8542,4.8566,4.8602,4.8641,4.8671,4.8739,4.8735,4.8769,4.8754,4.8822,4.8758,4.8764,4.8753,4.875,4.8754,4.8835,4.8837,4.8839,4.884,0,4.8528,4.8522,4.8559,4.8594,4.8624,4.865,4.8673,4.8696,4.8678,4.8708,4.8751,4.8775,4.882,4.8859,4.8889,4.8895,4.8864,4.8861,4.8876,4.8883,4.8886,4.8884,4.8677,4.8856,4.8854,4.8853,4.8852,4.8851,4.8646,4.8688,4.8706,4.8748,4.8763,4.8786,4.8823,4.8824,4.886,4.8897,4.8882,4.8932,4.8947,4.8984,4.8995,4.9032,4.9005,4.9027,4.9032,4.9038,4.9045,4.8882,4.9037,4.9037,4.9036,4.9036,4.9035,0,4.8805,4.8815,4.8854,4.8888,4.892,4.8891,4.8915,4.8943,4.8988,4.9005,4.9036,4.9085,4.9122,4.9123,4.9157,4.9186,4.9173,4.9196,4.9193,4.9194,4.9068,4.9051,4.9206,4.9206,4.9206,4.9206,4.9206,4.9206,4.8891,4.8959,4.8955,4.903,4.9039,4.9088,4.9104,4.9124,4.9138,4.9195,4.9227,4.9227,4.9238,4.9272,4.9305,4.9303,4.9317,4.9345,4.9339,4.922,4.9203,4.9187,4.9171,4.9349,4.9349,4.9462,4.9463,4.9464]}]]